Home > Weather > Santiago de Cuba > Past weeks

Flag for Cuba Past Weather in Santiago de Cuba, Cuba — Yesterday and Last 2 Weeks

Now
77 °F

Passing clouds.


Feels Like: 78 °F
Forecast: 75 / 89 °F
Wind: 5 mph from North

Location: Santiago De Cuba - Oriente

Current Time: Jun 27, 2016 at 9:10:54 AM

Latest Report: Jun 27, 2016 at 7:50 AM


Visibility: N/A

Pressure: 30.01 "Hg

Humidity: 83%

Dew Point: 72 °F

Location of Santiago de CubaLocation

Past Weather in Santiago de Cuba — Graph

°F

Santiago de Cuba Temperature Yesterday

Maximum temperature yesterday: 95 °F (at 12:50 PM)
Minimum temperature yesterday: 73 °F (at 4:51 AM)
Average temperature yesterday: 80 °F

High & Low Weather Summary for the Past Weeks

 TemperatureHumidityPressure
High95 °F (Jun 26, 12:50 PM)94% (Jun 13, 6:51 AM)30.15 "Hg (Jun 13, 6:51 AM)
Low72 °F (Jun 19, 6:52 AM)36% (Jun 26, 12:50 PM)29.95 "Hg (Jun 20, 3:52 PM)
Average81 °F73%30.03 "Hg
* Reported Jun 12 7:51 AM — Jun 27 7:50 AM, Santiago de Cuba, Weather by CustomWeather, © 2016

Note: Actual official high and low records may vary slightly from our data, if they occured in-between our weather recording intervals... More about our weather records

Advertising

Santiago de Cuba Weather History for the Previous 24 Hours

Scroll right to see more
 ConditionsComfort  
Time TempWeatherWind HumidityBarometerVisibility
7:50 AM
Mon, Jun 27
77 °FPassing clouds.5 mph83%30.01 "HgN/A
6:50 AM75 °FPassing clouds.6 mph89%29.98 "HgN/A
5:51 AM73 °FPassing clouds.7 mph94%29.98 "Hg6 mi
4:51 AM75 °FPassing clouds.7 mph89%29.98 "Hg6 mi
3:51 AM75 °FPassing clouds.7 mph89%29.98 "Hg6 mi
2:51 AM75 °FPassing clouds.8 mph94%29.98 "Hg6 mi
1:51 AM75 °FPassing clouds.6 mph94%30.01 "Hg6 mi
12:51 AM75 °FPassing clouds.5 mph94%30.04 "Hg6 mi
11:50 PM
Sun, Jun 26
75 °FPassing clouds.6 mph94%30.04 "Hg6 mi
10:50 PM75 °FPassing clouds.5 mph89%30.04 "Hg6 mi
9:50 PM75 °FPassing clouds.6 mph89%30.04 "Hg6 mi
8:50 PM75 °FPassing clouds.6 mph89%30.04 "Hg6 mi
7:52 PM75 °FScattered showers. Scattered clouds.5 mph89%N/A5 mi
6:52 PM75 °FScattered showers. Scattered clouds.5 mphN/AN/A5 mi
5:51 PM75 °FThundershowers. Scattered clouds.8 mph78%30.01 "Hg3 mi
4:53 PM84 °FScattered clouds.13 mph66%30.01 "Hg6 mi
3:51 PM88 °FScattered clouds.14 mph55%29.98 "Hg6 mi
2:52 PM90 °FPassing clouds.13 mph55%29.98 "Hg6 mi
1:50 PM90 °FPassing clouds.13 mph52%30.01 "Hg6 mi
12:50 PM95 °FPassing clouds.9 mph36%30.01 "Hg6 mi
11:51 AM93 °FSunny.7 mph41%30.01 "Hg6 mi
10:51 AM91 °FPassing clouds.7 mph46%30.01 "Hg6 mi
9:50 AM88 °FPassing clouds.8 mph52%30.01 "Hg6 mi
Weather by CustomWeather, © 2016

See weather overviewHow to use our weather pages